#timestamp,LO_Frequency,Hit,StdDev 
1558526415.3,286046998.2,N
1558526435.2,286046998.3,N
1558526455.9,286046999.0,N
1558526475.7,286046998.3,N
1558526495.6,286046999.2,N
1558526515.4,286046997.0,N
1558526535.2,286046999.6,N
1558526555.1,286046999.4,N
1558526556.0,286046999.4,N
1558526575.8,286046999.0,N
1558526595.7,286046999.3,N
1558526615.5,286047000.8,N
1558526635.3,286046998.7,N
1558526655.2,286046998.2,N
1558526675.0,286046999.0,N
1558526675.9,286046999.0,N
1558526695.7,286046998.4,N
1558526715.6,286046998.4,N
1558526735.4,286047001.1,N
1558526755.3,286046998.8,N
1558526775.1,286046998.8,N
1558526776.0,286046998.8,N
1558526795.8,286046998.2,N
1558526815.7,286046998.4,N
1558526835.5,286047000.9,N
1558526855.3,286047002.1,N
1558526875.2,286046999.7,N
1558526895.0,286047001.8,N
1558526895.9,286047001.8,N
1558526915.8,286047002.0,N
1558526935.6,286047001.4,N
1558526955.4,286047003.0,N
1558526975.3,286047004.1,N
1558526995.1,286047004.4,N
1558527015.9,286047001.3,N
1558527035.7,286047003.7,N
1558527055.5,286047003.7,N
1558527075.4,286047004.2,N
1558527095.2,286047003.5,N
1558527115.0,286047004.0,N
1558527115.9,286047004.0,N
1558527135.8,286047004.4,N
1558527155.6,286047005.5,N
1558527175.5,286047005.9,N
1558527195.3,286047002.9,N
1558527215.1,286047003.0,N
1558527235.9,286047003.2,N
1558527255.7,286047003.7,N
1558527275.5,286047004.0,N
1558527295.4,286047003.5,N
1558527315.2,286047003.7,N
1558527335.1,286047004.4,N
1558527336.0,286047004.4,N
1558527355.8,286047003.8,N
1558527375.6,286047004.2,Y
1558527395.5,286046998.1,P
1558527415.3,286046998.2,N
1558527435.1,286046998.5,N
1558527455.9,286047001.2,N
1558527475.7,286047000.3,N
1558527495.6,286047000.0,N
1558527515.4,286047002.3,N
1558527535.2,286046999.8,N
1558527555.1,286047001.9,N
1558527556.0,286047001.9,N
1558527575.8,286047001.7,N
1558527595.6,286047002.6,N
1558527615.5,286047000.3,N
1558527635.3,286047000.5,N
1558527655.2,286047000.9,N
1558527675.9,286047000.9,N
1558527695.7,286047000.5,N
1558527715.6,286047001.0,N
1558527735.4,286046999.9,N
1558527755.2,286047000.0,N
1558527775.1,286046999.8,N
1558527776.0,286046999.8,N
1558527795.8,286047000.7,N
1558527815.7,286047001.0,N
1558527835.5,286046998.1,N
1558527855.3,286046999.8,N
1558527875.2,286047002.7,N
1558527895.0,286047002.6,N
1558527895.9,286047002.6,N
1558527915.7,286047002.0,N
1558527935.6,286047002.7,N
1558527955.4,286047002.5,N
1558527975.3,286047002.5,N
1558527995.1,286047002.7,N
1558527996.0,286047002.7,N
1558528015.8,286047002.8,N
1558528035.7,286047000.9,N
1558528055.5,286047000.7,N
1558528075.3,286047001.1,N
1558528095.2,286047000.1,N
1558528115.0,286047002.8,N
1558528115.9,286047002.8,N
1558528135.8,286047001.9,N
1558528155.6,286047001.5,N
1558528175.4,286047001.8,N
1558528195.3,286047003.6,N
1558528215.1,286047003.2,N
1558528235.9,286047004.2,Y
1558528255.7,286047000.7,P
1558528275.5,286047000.8,N
1558528295.4,286047000.8,N
1558528315.2,286047000.7,N
1558528335.0,286046998.2,Y
1558528335.9,286046998.2,P
1558528355.8,286046996.5,N
1558528375.6,286046996.8,N
1558528395.5,286046995.9,N
1558528415.3,286046996.3,N
1558528435.1,286046993.5,Y
1558528455.9,286046997.1,P
1558528475.7,286046997.3,P
1558528495.5,286046995.7,P
1558528515.4,286046997.4,Y
1558528535.2,286047000.3,P
1558528555.1,286047000.9,N
1558528556.0,286047000.9,N
1558528575.8,286047001.0,N
1558528595.6,286047000.5,N
1558528615.5,286046998.8,N
1558528635.3,286046998.1,N
1558528655.1,286046998.5,N
1558528675.9,286046998.2,N
1558528695.7,286046999.3,N
1558528715.6,286046998.8,N
1558528735.4,286046998.5,N
1558528755.2,286046999.0,N
1558528775.1,286046998.9,N
1558528776.0,286046998.9,N
1558528795.8,286046996.6,N
1558528815.6,286046999.1,N
1558528835.5,286046998.9,N
1558528855.3,286047000.6,N
1558528875.2,286047000.3,N
1558528895.9,286047000.2,N
1558528915.7,286046999.8,N
1558528935.6,286047002.7,N
1558528955.4,286047002.7,N
1558528975.2,286047000.0,N
1558528995.1,286047002.8,N
1558528996.0,286047002.8,N
1558529015.8,286047001.6,N
1558529035.7,286047002.1,N
1558529055.5,286047003.2,N
1558529075.3,286047004.0,N
1558529095.2,286047002.4,N
1558529115.0,286047000.4,N
1558529115.9,286047000.4,N
1558529135.8,286047001.8,N
1558529155.6,286047001.5,N
1558529175.4,286047002.7,N
1558529195.3,286047000.2,N
1558529215.1,286047000.6,N
1558529235.8,286047000.5,N
1558529255.7,286047000.5,N
1558529275.5,286047000.3,N
1558529295.4,286047002.8,N
1558529315.2,286047002.4,N
1558529335.0,286047000.6,N
1558529335.9,286047000.6,N
1558529355.8,286046999.9,N
1558529375.6,286047002.8,N
1558529395.4,286047002.8,N
1558529415.3,286047001.0,N
1558529435.1,286047000.3,N
1558529455.9,286047000.8,N
1558529475.7,286046999.9,N
1558529495.5,286047000.3,N
1558529515.4,286047000.4,N
1558529535.2,286047000.2,N
1558529555.0,286047001.0,N
1558529555.9,286047001.0,N
1558529575.8,286046999.8,N
1558529595.6,286046999.7,N
1558529615.5,286046999.9,N
1558529635.3,286046999.7,N
1558529655.1,286046999.8,N
1558529675.9,286047002.6,N
1558529695.7,286047000.3,N
1558529715.5,286046999.7,N
1558529735.4,286046999.9,N
1558529755.2,286047002.1,N
1558529775.1,286047002.3,N
1558529776.0,286047002.3,N
1558529795.8,286046999.9,N
1558529815.6,286046999.8,N
1558529835.5,286047000.4,N
1558529855.3,286047002.8,N
1558529875.2,286047002.1,N
1558529895.9,286047000.2,N
1558529915.7,286047002.7,N
1558529935.6,286047000.1,N
1558529955.4,286047000.0,N
1558529975.3,286047000.9,N
1558529995.1,286046998.2,N
1558529996.0,286046998.2,N
